World > North America > United States > Wyoming > Ralston  

Ralston, WY Hourly Weather Updates

Feedback E-mail the Weather

Quick Clicks

Ralston, WY Weather Maps

°F °C°F °C
Ralston Weather Map
UTC Time: 4/25/2024, 15:04
Your Time:

Ralston, WY Regional Weather

Expires:202404251500;;350728
ASUS45 KCYS 251410
RWRWY 

WYOMING REGIONAL WEATHER ROUNDUP
NATIONAL WEATHER SERVICE CHEYENNE WY
800 AM MDT THU APR 25 2024

NOTE:  "FAIR" INDICATES FEW OR NO CLOUDS BELOW 12,000 FEET
WITH NO SIGNIFICANT WEATHER AND/OR OBSTRUCTIONS TO VISIBILITY.


WYZ002>013-054>058-071-098>099-251500-
...NORTHERN WYOMING...
  
CITY           SKY/WX    TMP DP  RH WIND       PRES   REMARKS
JACKSON        LGT RAIN  36  34  92 CALM      29.92S                  
CODY           PTSUNNY   54  38  54 N8        29.83S                  
GREYBULL       PTSUNNY   52  35  52 NW6       29.76S                  
WORLAND        PTSUNNY   53  33  46 CALM      29.77R                  
SHERIDAN       PTSUNNY   55  33  43 NW22G30   29.73R                  
BUFFALO        PTSUNNY   58  33  39 N20G31    29.73R                  
GILLETTE       PTSUNNY   56  42  59 S13       29.74R                  
HULETT         CLOUDY    54  45  71 CALM      29.75S                  
NEWCASTLE      CLOUDY    52  39  62 SE13      29.80R                  

$$

SKY/WX - Weather  TMP - Temperature  DP - Dew Point  RH - Humidity
WIND - Wind Direction/Speed PRES - Barometric Pressure VSB - Visibility
WCI - Wind Chill Index E13G22 Wind - East Wind 13 mph/Gusts of 22 mph

Trending Headlines

Trending Entertainment Headlines

Ralston Radar Loop

Use the map search tool if you want to place a location marker on the radar map...

Ralston Quick Facts

National Two Day Weather Forecast


E-mail the Ralston Weather Forecast

Voice your opinion or tell us about page issues...